• In Österreich
  • Länderverzeichnis
  • Für 7 Tage
  • Wassertemperatur
  • Satellitenkarten
  • Wetterkarte
  • News
  • Widgets
  • user-avatar
    Anmelden

    Stündliche Wetter Korçe

    Heute, 16 November, Freitag

    Zeit Temperatur Niederschläge Wind Luftdruck Luftfeuchtigkeit
    00:00 +3°C° 0 mm 2 m/S 668 mmHg 61%
    01:00 +3°C° 0 mm 2 m/S 668 mmHg 62%
    02:00 +3°C° 0 mm 2 m/S 668 mmHg 63%
    03:00 +3°C° 0 mm 2 m/S 668 mmHg 63%
    04:00 +3°C° 0 mm 2 m/S 668 mmHg 64%
    05:00 +2°C° 0.1 mm 2 m/S 668 mmHg 67%
    06:00 +2°C° 0.1 mm 2 m/S 668 mmHg 70%
    07:00 +2°C° 0.1 mm 2 m/S 668 mmHg 73%
    08:00 +3°C° 0.2 mm 2 m/S 668 mmHg 70%
    09:00 +3°C° 0.2 mm 3 m/S 668 mmHg 67%
    10:00 +4°C° 0.2 mm 3 m/S 669 mmHg 64%
    11:00 +4°C° 0.2 mm 3 m/S 669 mmHg 63%
    12:00 +5°C° 0.2 mm 3 m/S 669 mmHg 62%
    13:00 +5°C° 0.2 mm 3 m/S 669 mmHg 61%
    14:00 +5°C° 0.2 mm 3 m/S 668 mmHg 64%
    15:00 +4°C° 0.2 mm 3 m/S 668 mmHg 68%
    16:00 +3°C° 0.2 mm 3 m/S 668 mmHg 71%
    17:00 +3°C° 0.2 mm 3 m/S 668 mmHg 74%
    18:00 +2°C° 0.2 mm 3 m/S 668 mmHg 76%
    19:00 +2°C° 0.2 mm 3 m/S 668 mmHg 78%
    20:00 +2°C° 0.2 mm 3 m/S 668 mmHg 79%
    21:00 +1°C° 0.2 mm 3 m/S 668 mmHg 80%
    22:00 +1°C° 0.2 mm 3 m/S 667 mmHg 81%
    23:00 +1°C° 0.1 mm 3 m/S 667 mmHg 81%

    Morgen, 17 November, Samstag

    Zeit Temperatur Niederschläge Wind Luftdruck Luftfeuchtigkeit
    00:00 +1°C° 0.1 mm 3 m/S 667 mmHg 82%
    01:00 +1°C° 0.1 mm 3 m/S 667 mmHg 82%
    02:00 +1°C° 0.2 mm 3 m/S 667 mmHg 82%
    03:00 +1°C° 0.2 mm 3 m/S 667 mmHg 82%
    04:00 +1°C° 0.2 mm 3 m/S 666 mmHg 82%
    05:00 +1°C° 0.4 mm 3 m/S 667 mmHg 82%
    06:00 +1°C° 0.4 mm 3 m/S 667 mmHg 82%
    07:00 +1°C° 0.4 mm 3 m/S 667 mmHg 82%
    08:00 +1°C° 0.3 mm 3 m/S 667 mmHg 79%
    09:00 +2°C° 0.3 mm 3 m/S 667 mmHg 77%
    10:00 +1°C° 0.3 mm 4 m/S 667 mmHg 74%
    11:00 +3°C° 0.1 mm 4 m/S 667 mmHg 72%
    12:00 +3°C° 0.1 mm 4 m/S 667 mmHg 70%
    13:00 +3°C° 0.1 mm 4 m/S 667 mmHg 69%
    14:00 +3°C° 0.1 mm 3 m/S 667 mmHg 70%
    15:00 +2°C° 0.1 mm 3 m/S 667 mmHg 72%
    16:00 +2°C° 0.1 mm 3 m/S 666 mmHg 74%
    17:00 +1°C° 0.1 mm 3 m/S 666 mmHg 76%
    18:00 +1°C° 0.1 mm 3 m/S 666 mmHg 78%
    19:00 0°C° 0.1 mm 3 m/S 666 mmHg 81%
    20:00 0°C° 0.1 mm 3 m/S 666 mmHg 81%
    21:00 0°C° 0.1 mm 3 m/S 666 mmHg 81%
    22:00 0°C° 0.1 mm 3 m/S 667 mmHg 81%
    23:00 0°C° 0.1 mm 3 m/S 666 mmHg 81%

    übermorgen, 18 November, Sonntag

    Zeit Temperatur Niederschläge Wind Luftdruck Luftfeuchtigkeit
    00:00 0°C° 0.1 mm 3 m/S 666 mmHg 81%
    01:00 0°C° 0.1 mm 3 m/S 666 mmHg 82%
    02:00 0°C° 0.1 mm 3 m/S 666 mmHg 82%
    03:00 0°C° 0.1 mm 3 m/S 666 mmHg 82%
    04:00 0°C° 0.1 mm 3 m/S 665 mmHg 82%
    05:00 0°C° 0.1 mm 3 m/S 665 mmHg 82%
    06:00 0°C° 0.1 mm 3 m/S 666 mmHg 82%
    07:00 0°C° 0.1 mm 3 m/S 666 mmHg 82%
    08:00 +1°C° 0.2 mm 3 m/S 666 mmHg 81%
    09:00 +2°C° 0.2 mm 3 m/S 666 mmHg 80%
    10:00 +2°C° 0.2 mm 3 m/S 666 mmHg 78%
    11:00 +3°C° 0.6 mm 3 m/S 666 mmHg 78%
    12:00 +3°C° 0.6 mm 3 m/S 665 mmHg 78%
    13:00 +4°C° 0.6 mm 2 m/S 665 mmHg 78%
    14:00 +4°C° 2 mm 2 m/S 664 mmHg 81%
    15:00 +3°C° 2 mm 2 m/S 664 mmHg 84%
    16:00 +2°C° 2 mm 2 m/S 663 mmHg 88%
    17:00 +2°C° 1.6 mm 2 m/S 663 mmHg 88%
    18:00 +2°C° 1.6 mm 2 m/S 663 mmHg 88%
    19:00 +2°C° 1.6 mm 2 m/S 663 mmHg 88%
    20:00 +2°C° 0.5 mm 2 m/S 662 mmHg 88%
    21:00 +1°C° 0.5 mm 2 m/S 662 mmHg 88%
    22:00 +1°C° 0.5 mm 2 m/S 662 mmHg 88%
    23:00 +1°C° 0.3 mm 2 m/S 662 mmHg 88%

    19 November, Montag

    Zeit Temperatur Niederschläge Wind Luftdruck Luftfeuchtigkeit
    00:00 +1°C° 0.3 mm 2 m/S 661 mmHg 88%
    01:00 +1°C° 0.3 mm 2 m/S 661 mmHg 88%
    02:00 +1°C° 0.2 mm 2 m/S 661 mmHg 88%
    03:00 +1°C° 0.2 mm 2 m/S 660 mmHg 88%
    04:00 +1°C° 0.2 mm 2 m/S 660 mmHg 88%
    05:00 +1°C° 0.1 mm 2 m/S 660 mmHg 88%
    06:00 +3°C° 0.1 mm 1 m/S 660 mmHg 87%
    07:00 +3°C° 0.1 mm 1 m/S 661 mmHg 87%
    08:00 +3°C° 0 mm 2 m/S 661 mmHg 86%
    09:00 +5°C° 0 mm 2 m/S 661 mmHg 84%
    10:00 +6°C° 0 mm 2 m/S 662 mmHg 83%
    11:00 +6°C° 0.2 mm 2 m/S 662 mmHg 84%
    12:00 +6°C° 0.2 mm 2 m/S 661 mmHg 85%
    13:00 +8°C° 0.2 mm 1 m/S 661 mmHg 86%
    14:00 +6°C° 0.7 mm 2 m/S 661 mmHg 88%
    15:00 +6°C° 0.7 mm 2 m/S 661 mmHg 91%
    16:00 +6°C° 0.7 mm 2 m/S 661 mmHg 93%
    17:00 +5°C° 0.7 mm 2 m/S 661 mmHg 93%
    18:00 +5°C° 0.7 mm 2 m/S 661 mmHg 94%
    19:00 +4°C° 0.7 mm 3 m/S 661 mmHg 94%
    20:00 +4°C° 0.6 mm 3 m/S 661 mmHg 94%
    21:00 +4°C° 0.6 mm 3 m/S 662 mmHg 94%
    22:00 +4°C° 0.6 mm 3 m/S 662 mmHg 94%
    23:00 +4°C° 1.5 mm 3 m/S 661 mmHg 93%

    20 November, Dienstag

    Zeit Temperatur Niederschläge Wind Luftdruck Luftfeuchtigkeit
    00:00 +4°C° 1.5 mm 3 m/S 661 mmHg 93%
    01:00 +5°C° 1.5 mm 3 m/S 661 mmHg 93%
    02:00 +5°C° 1.3 mm 4 m/S 661 mmHg 93%
    03:00 +5°C° 1.3 mm 4 m/S 661 mmHg 94%
    04:00 +5°C° 1.3 mm 4 m/S 660 mmHg 94%
    05:00 +5°C° 1.1 mm 4 m/S 660 mmHg 94%
    06:00 +5°C° 1.1 mm 4 m/S 660 mmHg 94%
    07:00 +6°C° 1.1 mm 4 m/S 660 mmHg 94%
    08:00 +6°C° 2.7 mm 4 m/S 660 mmHg 94%
    09:00 +6°C° 2.7 mm 4 m/S 660 mmHg 93%
    10:00 +6°C° 2.7 mm 4 m/S 661 mmHg 93%
    11:00 +7°C° 2.2 mm 4 m/S 660 mmHg 93%
    12:00 +7°C° 2.2 mm 4 m/S 660 mmHg 92%
    13:00 +7°C° 2.2 mm 5 m/S 659 mmHg 92%
    14:00 +7°C° 3.2 mm 5 m/S 659 mmHg 93%
    15:00 +7°C° 3.2 mm 4 m/S 658 mmHg 93%
    16:00 +7°C° 3.2 mm 4 m/S 658 mmHg 94%
    17:00 +7°C° 3.7 mm 5 m/S 658 mmHg 94%
    18:00 +7°C° 3.7 mm 5 m/S 658 mmHg 93%
    19:00 +8°C° 3.7 mm 5 m/S 658 mmHg 93%
    20:00 +7°C° 1.4 mm 5 m/S 658 mmHg 93%
    21:00 +7°C° 1.4 mm 4 m/S 658 mmHg 93%
    22:00 +7°C° 1.4 mm 4 m/S 658 mmHg 93%
    23:00 +7°C° 0.4 mm 4 m/S 658 mmHg 93%

    21 November, Mittwoch

    Zeit Temperatur Niederschläge Wind Luftdruck Luftfeuchtigkeit
    00:00 +6°C° 0.4 mm 4 m/S 658 mmHg 93%
    01:00 +6°C° 0.4 mm 4 m/S 658 mmHg 93%
    02:00 +6°C° 0.5 mm 4 m/S 658 mmHg 94%
    03:00 +7°C° 0.5 mm 3 m/S 658 mmHg 94%
    04:00 +7°C° 0.5 mm 3 m/S 659 mmHg 95%
    05:00 +7°C° 0.8 mm 3 m/S 659 mmHg 95%
    06:00 +7°C° 0.8 mm 3 m/S 660 mmHg 94%
    07:00 +7°C° 0.8 mm 2 m/S 660 mmHg 94%
    08:00 +8°C° 0.2 mm 2 m/S 661 mmHg 89%
    09:00 +8°C° 0.2 mm 2 m/S 661 mmHg 84%
    10:00 +9°C° 0.2 mm 2 m/S 662 mmHg 79%
    11:00 +9°C° 0 mm 3 m/S 662 mmHg 75%
    12:00 +10°C° 0 mm 3 m/S 662 mmHg 71%
    13:00 +10°C° 0 mm 3 m/S 662 mmHg 67%
    14:00 +10°C° 0 mm 3 m/S 662 mmHg 72%
    15:00 +9°C° 0 mm 3 m/S 662 mmHg 77%
    16:00 +8°C° 0 mm 2 m/S 662 mmHg 82%
    17:00 +8°C° 0.2 mm 2 m/S 663 mmHg 85%
    18:00 +7°C° 0.2 mm 2 m/S 663 mmHg 88%
    19:00 +7°C° 0.2 mm 2 m/S 664 mmHg 91%
    20:00 +7°C° 0.1 mm 2 m/S 664 mmHg 91%
    21:00 +7°C° 0.1 mm 2 m/S 664 mmHg 91%
    22:00 +7°C° 0.1 mm 2 m/S 665 mmHg 91%
    23:00 +6°C° 0.1 mm 2 m/S 665 mmHg 91%
    Mehr zeigen